Retour au catalogue

SATCOM 3 DEB

ActifHEO
NORAD 32985·DEBRIS·🇺🇸 United States

Lancé Dec 7, 1979 depuis Cape Canaveral Space Force Station

Loading…

Prochains Passages (prochaines 24 heures)

TLE

FraisSource: Space-Track

Époque: Sep 14, 2026, 07:05 UTC

1 32985U 79101L   26257.29560538 -.00000103  00000-0  00000-0 0  9990
2 32985   7.9683 153.7595 4741375 325.4316 265.8548  1.80668721122251

Suivez SATCOM 3 DEB en temps réel avec AllMySat

Download on the App Store